Time,TemperatureF,DewpointF,PressureIn,WindDirection,WindDirectionDegrees,WindSpeedMPH,WindSpeedGustMPH,Humidity,HourlyPrecipIn,Conditions,Clouds,dailyrainin,SoftwareType,DateUTC
2013-06-06 00:00:00,58.1,47.2,30.01,ESE,106,6.0,13.0,67,0.00,CLR,CLR,0.00,WeatherDisplay:10.37,2013-06-05 23:00:00,
2013-06-06 00:10:00,57.7,46.9,30.02,East,97,8.0,14.0,67,0.00,CLR,CLR,0.00,WeatherDisplay:10.37,2013-06-05 23:10:00,
2013-06-06 00:20:00,57.4,46.9,30.01,ESE,103,7.0,11.0,68,0.00,CLR,CLR,0.00,WeatherDisplay:10.37,2013-06-05 23:20:00,
2013-06-06 00:30:00,57.0,47.3,30.01,ESE,110,6.0,11.0,70,0.00,CLR,CLR,0.00,WeatherDisplay:10.37,2013-06-05 23:30:00,
2013-06-06 00:40:00,57.2,46.7,30.01,East,95,8.0,13.0,68,0.00,CLR,CLR,0.00,WeatherDisplay:10.37,2013-06-05 23:40:00,
2013-06-06 00:50:00,56.8,47.2,30.02,ENE,76,8.0,13.0,70,0.00,CLR,CLR,0.00,WeatherDisplay:10.37,2013-06-05 23:50:00,
2013-06-06 01:00:00,56.1,46.8,30.02,ENE,69,7.0,12.0,71,0.00,CLR,CLR,0.00,WeatherDisplay:10.37,2013-06-06 00:00:00,
2013-06-06 01:10:00,55.8,46.9,30.01,East,84,7.0,14.0,72,0.00,CLR,CLR,0.00,WeatherDisplay:10.37,2013-06-06 00:10:00,
2013-06-06 01:20:00,55.4,46.9,30.02,East,88,7.0,15.0,73,0.00,CLR,CLR,0.00,WeatherDisplay:10.37,2013-06-06 00:20:00,
2013-06-06 01:30:00,55.0,46.5,30.02,East,84,9.0,16.0,73,0.00,CLR,CLR,0.00,WeatherDisplay:10.37,2013-06-06 00:30:00,
2013-06-06 01:40:00,54.9,46.7,30.01,East,81,8.0,14.0,74,0.00,CLR,CLR,0.00,WeatherDisplay:10.37,2013-06-06 00:40:00,
2013-06-06 01:50:00,54.5,46.7,30.01,ESE,104,7.0,14.0,75,0.00,CLR,CLR,0.00,WeatherDisplay:10.37,2013-06-06 00:50:00,
2013-06-06 02:00:00,54.1,46.7,30.01,East,89,8.0,15.0,76,0.00,CLR,CLR,0.00,WeatherDisplay:10.37,2013-06-06 01:00:00,
2013-06-06 02:10:00,53.8,46.4,30.01,East,79,9.0,15.0,76,0.00,CLR,CLR,0.00,WeatherDisplay:10.37,2013-06-06 01:10:00,
2013-06-06 02:20:00,53.6,46.6,30.01,ENE,61,8.0,15.0,77,0.00,CLR,CLR,0.00,WeatherDisplay:10.37,2013-06-06 01:20:00,
2013-06-06 02:30:00,53.4,47.1,30.01,East,84,7.0,13.0,79,0.00,CLR,CLR,0.00,WeatherDisplay:10.37,2013-06-06 01:30:00,
2013-06-06 02:40:00,53.2,46.9,30.01,ENE,78,7.0,13.0,79,0.00,CLR,CLR,0.00,WeatherDisplay:10.37,2013-06-06 01:40:00,
2013-06-06 02:50:00,52.9,46.9,30.01,East,93,7.0,13.0,80,0.00,CLR,CLR,0.00,WeatherDisplay:10.37,2013-06-06 01:50:00,
2013-06-06 03:00:00,52.9,47.2,30.01,ENE,63,6.0,11.0,81,0.00,CLR,CLR,0.00,WeatherDisplay:10.37,2013-06-06 02:00:00,
2013-06-06 03:10:00,53.1,47.4,30.01,East,90,8.0,14.0,81,0.00,CLR,CLR,0.00,WeatherDisplay:10.37,2013-06-06 02:10:00,
2013-06-06 03:20:00,52.7,47.0,30.02,East,82,6.0,11.0,81,0.00,CLR,CLR,0.00,WeatherDisplay:10.37,2013-06-06 02:20:00,
2013-06-06 03:30:00,52.7,47.0,30.02,East,90,6.0,12.0,81,0.00,CLR,CLR,0.00,WeatherDisplay:10.37,2013-06-06 02:30:00,
2013-06-06 03:40:00,52.3,47.0,30.02,ESE,102,6.0,13.0,82,0.00,CLR,CLR,0.00,WeatherDisplay:10.37,2013-06-06 02:40:00,
2013-06-06 03:50:00,51.9,46.9,30.02,East,101,3.0,10.0,83,0.00,CLR,CLR,0.00,WeatherDisplay:10.37,2013-06-06 02:50:00,
2013-06-06 04:00:00,51.8,46.8,30.02,East,101,5.0,7.0,83,0.00,CLR,CLR,0.00,WeatherDisplay:10.37,2013-06-06 03:00:00,
2013-06-06 04:10:00,51.6,46.9,30.02,East,88,3.0,7.0,84,0.00,CLR,CLR,0.00,WeatherDisplay:10.37,2013-06-06 03:10:00,
2013-06-06 04:20:00,50.8,46.4,30.01,East,101,6.0,8.0,85,0.00,CLR,CLR,0.00,WeatherDisplay:10.37,2013-06-06 03:20:00,
2013-06-06 04:30:00,50.2,46.2,30.01,East,92,6.0,9.0,86,0.00,CLR,CLR,0.00,WeatherDisplay:10.37,2013-06-06 03:30:00,
2013-06-06 04:40:00,49.8,46.1,30.01,East,92,7.0,10.0,87,0.00,CLR,CLR,0.00,WeatherDisplay:10.37,2013-06-06 03:40:00,
2013-06-06 04:50:00,49.8,46.4,30.01,East,92,6.0,11.0,88,0.00,CLR,CLR,0.00,WeatherDisplay:10.37,2013-06-06 03:50:00,
2013-06-06 05:00:00,50.0,46.3,30.02,East,88,6.0,11.0,87,0.00,CLR,CLR,0.00,WeatherDisplay:10.37,2013-06-06 04:00:00,
2013-06-06 05:10:00,49.8,46.1,30.01,ENE,78,6.0,13.0,87,0.00,CLR,CLR,0.00,WeatherDisplay:10.37,2013-06-06 04:10:00,
2013-06-06 05:20:00,49.5,46.1,30.01,East,99,6.0,12.0,88,0.00,CLR,CLR,0.00,WeatherDisplay:10.37,2013-06-06 04:20:00,
2013-06-06 05:30:00,49.5,46.1,30.02,ENE,66,3.0,10.0,88,0.00,CLR,CLR,0.00,WeatherDisplay:10.37,2013-06-06 04:30:00,
2013-06-06 05:40:00,49.7,46.3,30.02,ENE,74,5.0,9.0,88,0.00,CLR,CLR,0.00,WeatherDisplay:10.37,2013-06-06 04:40:00,
2013-06-06 05:50:00,50.4,46.7,30.02,ENE,73,6.0,9.0,87,0.00,CLR,CLR,0.00,WeatherDisplay:10.37,2013-06-06 04:50:00,
2013-06-06 06:00:00,51.1,46.7,30.02,ENE,69,5.0,8.0,85,0.00,CLR,CLR,0.00,WeatherDisplay:10.37,2013-06-06 05:00:00,
2013-06-06 06:10:00,51.3,46.6,30.02,East,80,5.0,9.0,84,0.00,CLR,CLR,0.00,WeatherDisplay:10.37,2013-06-06 05:10:00,
2013-06-06 06:20:00,51.5,46.9,30.02,NE,54,3.0,10.0,84,0.00,CLR,CLR,0.00,WeatherDisplay:10.37,2013-06-06 05:20:00,
2013-06-06 06:30:00,52.1,46.8,30.03,NNE,30,5.0,20.0,82,0.00,CLR,CLR,0.00,WeatherDisplay:10.37,2013-06-06 05:30:00,
2013-06-06 06:40:00,51.6,46.6,30.03,NNE,26,3.0,8.0,83,0.00,CLR,CLR,0.00,WeatherDisplay:10.37,2013-06-06 05:40:00,
2013-06-06 06:50:00,51.8,46.5,30.03,ENE,72,6.0,8.0,82,0.00,CLR,CLR,0.00,WeatherDisplay:10.37,2013-06-06 05:50:00,
2013-06-06 07:00:00,52.0,47.0,30.03,East,82,3.0,8.0,83,0.00,CLR,CLR,0.00,WeatherDisplay:10.37,2013-06-06 06:00:00,
2013-06-06 07:10:00,53.6,47.6,30.03,ENE,75,3.0,8.0,80,0.00,CLR,CLR,0.00,WeatherDisplay:10.37,2013-06-06 06:10:00,
2013-06-06 07:20:00,54.9,47.8,30.04,NE,54,2.0,8.0,77,0.00,CLR,CLR,0.00,WeatherDisplay:10.37,2013-06-06 06:20:00,
2013-06-06 07:30:00,56.3,48.5,30.04,East,94,2.0,8.0,75,0.00,CLR,CLR,0.00,WeatherDisplay:10.37,2013-06-06 06:30:00,
2013-06-06 07:40:00,56.9,49.0,30.04,ENE,68,1.0,8.0,75,0.00,CLR,CLR,0.00,WeatherDisplay:10.37,2013-06-06 06:40:00,
2013-06-06 07:50:00,59.4,50.0,30.04,East,83,1.0,6.0,71,0.00,CLR,CLR,0.00,WeatherDisplay:10.37,2013-06-06 06:50:00,
2013-06-06 08:00:00,58.6,49.6,30.04,East,87,5.0,8.0,72,0.00,CLR,CLR,0.00,WeatherDisplay:10.37,2013-06-06 07:00:00,
2013-06-06 08:10:00,59.4,49.7,30.04,East,91,2.0,6.0,70,0.00,CLR,CLR,0.00,WeatherDisplay:10.37,2013-06-06 07:10:00,
2013-06-06 08:20:00,61.2,50.5,30.04,ESE,108,1.0,6.0,68,0.00,CLR,CLR,0.00,WeatherDisplay:10.37,2013-06-06 07:20:00,
2013-06-06 08:30:00,62.9,50.1,30.05,ESE,118,1.0,5.0,63,0.00,CLR,CLR,0.00,WeatherDisplay:10.37,2013-06-06 07:30:00,
2013-06-06 08:40:00,64.7,51.8,30.05,ESE,117,1.0,5.0,63,0.00,CLR,CLR,0.00,WeatherDisplay:10.37,2013-06-06 07:40:00,
2013-06-06 08:50:00,65.1,50.9,30.05,NE,37,5.0,7.0,60,0.00,CLR,CLR,0.00,WeatherDisplay:10.37,2013-06-06 07:50:00,
2013-06-06 09:00:00,64.9,51.5,30.05,East,82,3.0,7.0,62,0.00,CLR,CLR,0.00,WeatherDisplay:10.37,2013-06-06 08:00:00,
2013-06-06 09:10:00,64.1,50.8,30.04,NNW,346,5.0,8.0,62,0.00,CLR,CLR,0.00,WeatherDisplay:10.37,2013-06-06 08:10:00,
2013-06-06 09:20:00,65.0,52.1,30.05,NE,38,2.0,9.0,63,0.00,CLR,CLR,0.00,WeatherDisplay:10.37,2013-06-06 08:20:00,
2013-06-06 09:30:00,65.4,51.2,30.05,NE,35,6.0,10.0,60,0.00,CLR,CLR,0.00,WeatherDisplay:10.37,2013-06-06 08:30:00,
2013-06-06 09:40:00,66.1,51.4,30.05,NE,42,3.0,11.0,59,0.00,CLR,CLR,0.00,WeatherDisplay:10.37,2013-06-06 08:40:00,
2013-06-06 09:50:00,67.6,50.9,30.05,ENE,77,5.0,10.0,55,0.00,CLR,CLR,0.00,WeatherDisplay:10.37,2013-06-06 08:50:00,
2013-06-06 10:00:00,67.0,50.8,30.05,NE,46,2.0,9.0,56,0.00,CLR,CLR,0.00,WeatherDisplay:10.37,2013-06-06 09:00:00,
2013-06-06 10:10:00,65.8,49.7,30.05,NE,41,3.0,10.0,56,0.00,CLR,CLR,0.00,WeatherDisplay:10.37,2013-06-06 09:10:00,
2013-06-06 10:20:00,67.8,51.5,30.06,ENE,78,6.0,7.0,56,0.00,CLR,CLR,0.00,WeatherDisplay:10.37,2013-06-06 09:20:00,
2013-06-06 10:30:00,67.8,51.5,30.06,NNE,23,5.0,12.0,56,0.00,CLR,CLR,0.00,WeatherDisplay:10.37,2013-06-06 09:30:00,
2013-06-06 10:40:00,68.6,50.8,30.06,East,92,3.0,8.0,53,0.00,CLR,CLR,0.00,WeatherDisplay:10.37,2013-06-06 09:40:00,
2013-06-06 10:50:00,68.2,50.9,30.06,ENE,71,5.0,12.0,54,0.00,CLR,CLR,0.00,WeatherDisplay:10.37,2013-06-06 09:50:00,
2013-06-06 11:00:00,68.6,51.3,30.06,ENE,77,5.0,11.0,54,0.00,CLR,CLR,0.00,WeatherDisplay:10.37,2013-06-06 10:00:00,
2013-06-06 11:10:00,68.2,52.4,30.06,ESE,103,2.0,13.0,57,0.00,CLR,CLR,0.00,WeatherDisplay:10.37,2013-06-06 10:10:00,
2013-06-06 11:20:00,68.8,52.4,30.05,ESE,105,6.0,12.0,56,0.00,CLR,CLR,0.00,WeatherDisplay:10.37,2013-06-06 10:20:00,
2013-06-06 11:30:00,68.2,51.9,30.06,East,90,7.0,12.0,56,0.00,CLR,CLR,0.00,WeatherDisplay:10.37,2013-06-06 10:30:00,
2013-06-06 11:40:00,69.6,53.2,30.06,East,85,5.0,11.0,56,0.00,CLR,CLR,0.00,WeatherDisplay:10.37,2013-06-06 10:40:00,
2013-06-06 11:50:00,70.9,53.4,30.06,ESE,121,6.0,10.0,54,0.00,CLR,CLR,0.00,WeatherDisplay:10.37,2013-06-06 10:50:00,
2013-06-06 12:00:00,70.1,52.2,30.06,East,89,5.0,10.0,53,0.00,CLR,CLR,0.00,WeatherDisplay:10.37,2013-06-06 11:00:00,
2013-06-06 12:10:00,70.7,52.2,30.06,ESE,109,3.0,9.0,52,0.00,CLR,CLR,0.00,WeatherDisplay:10.37,2013-06-06 11:10:00,
2013-06-06 12:20:00,72.0,52.3,30.06,NE,51,5.0,9.0,50,0.00,CLR,CLR,0.00,WeatherDisplay:10.37,2013-06-06 11:20:00,
2013-06-06 12:30:00,72.0,52.4,30.06,NE,47,6.0,12.0,50,0.00,CLR,CLR,0.00,WeatherDisplay:10.37,2013-06-06 11:30:00,
2013-06-06 12:40:00,70.7,52.2,30.06,East,79,5.0,29.0,52,0.00,CLR,CLR,0.00,WeatherDisplay:10.37,2013-06-06 11:40:00,
2013-06-06 12:50:00,71.6,49.7,30.06,NE,41,7.0,13.0,46,0.00,CLR,CLR,0.00,WeatherDisplay:10.37,2013-06-06 11:50:00,
2013-06-06 13:00:00,70.9,49.1,30.06,NE,51,5.0,13.0,46,0.00,CLR,CLR,0.00,WeatherDisplay:10.37,2013-06-06 12:00:00,
2013-06-06 13:10:00,70.2,51.2,30.06,NE,43,3.0,10.0,51,0.00,CLR,CLR,0.00,WeatherDisplay:10.37,2013-06-06 12:10:00,
2013-06-06 13:20:00,71.3,50.6,30.06,NE,50,1.0,11.0,48,0.00,CLR,CLR,0.00,WeatherDisplay:10.37,2013-06-06 12:20:00,
2013-06-06 13:30:00,72.0,49.5,30.06,NNE,30,6.0,13.0,45,0.00,CLR,CLR,0.00,WeatherDisplay:10.37,2013-06-06 12:30:00,
2013-06-06 13:40:00,72.5,49.9,30.06,ENE,71,7.0,12.0,45,0.00,CLR,CLR,0.00,WeatherDisplay:10.37,2013-06-06 12:40:00,
2013-06-06 13:50:00,71.1,49.8,30.06,ESE,102,8.0,13.0,47,0.00,CLR,CLR,0.00,WeatherDisplay:10.37,2013-06-06 12:50:00,
2013-06-06 14:00:00,71.7,49.2,30.06,ESE,106,9.0,20.0,45,0.00,CLR,CLR,0.00,WeatherDisplay:10.37,2013-06-06 13:00:00,
2013-06-06 14:10:00,72.4,51.0,30.06,ENE,63,10.0,13.0,47,0.00,CLR,CLR,0.00,WeatherDisplay:10.37,2013-06-06 13:10:00,
2013-06-06 14:20:00,71.8,50.5,30.06,NNE,28,12.0,20.0,47,0.00,CLR,CLR,0.00,WeatherDisplay:10.37,2013-06-06 13:20:00,
2013-06-06 14:30:00,71.6,50.3,30.06,NNE,20,10.0,20.0,47,0.00,CLR,CLR,0.00,WeatherDisplay:10.37,2013-06-06 13:30:00,
2013-06-06 14:40:00,73.0,49.8,30.05,ENE,70,7.0,23.0,44,0.00,CLR,CLR,0.00,WeatherDisplay:10.37,2013-06-06 13:40:00,
2013-06-06 14:50:00,73.7,51.0,30.05,East,86,5.0,13.0,45,0.00,CLR,CLR,0.00,WeatherDisplay:10.37,2013-06-06 13:50:00,
2013-06-06 15:00:00,74.8,51.4,30.05,East,81,6.0,13.0,44,0.00,CLR,CLR,0.00,WeatherDisplay:10.37,2013-06-06 14:00:00,
2013-06-06 15:10:00,76.1,49.4,30.05,NE,54,6.0,13.0,39,0.00,CLR,CLR,0.00,WeatherDisplay:10.37,2013-06-06 14:10:00,
2013-06-06 15:20:00,75.8,51.7,30.05,East,92,5.0,12.0,43,0.00,CLR,CLR,0.00,WeatherDisplay:10.37,2013-06-06 14:20:00,
2013-06-06 15:30:00,73.0,48.5,30.05,East,85,8.0,16.0,42,0.00,CLR,CLR,0.00,WeatherDisplay:10.37,2013-06-06 14:30:00,
2013-06-06 15:40:00,74.6,50.6,30.05,ENE,69,6.0,12.0,43,0.00,CLR,CLR,0.00,WeatherDisplay:10.37,2013-06-06 14:40:00,
2013-06-06 15:50:00,73.6,49.1,30.05,ENE,76,5.0,14.0,42,0.00,CLR,CLR,0.00,WeatherDisplay:10.37,2013-06-06 14:50:00,
2013-06-06 16:00:00,74.0,48.8,30.05,East,98,5.0,15.0,41,0.00,CLR,CLR,0.00,WeatherDisplay:10.37,2013-06-06 15:00:00,
2013-06-06 16:10:00,75.6,51.5,30.05,East,87,7.0,11.0,43,0.00,CLR,CLR,0.00,WeatherDisplay:10.37,2013-06-06 15:10:00,
2013-06-06 16:20:00,75.2,47.8,30.05,NE,55,3.0,10.0,38,0.00,CLR,CLR,0.00,WeatherDisplay:10.37,2013-06-06 15:20:00,
2013-06-06 16:30:00,76.3,49.5,30.05,ENE,64,7.0,12.0,39,0.00,CLR,CLR,0.00,WeatherDisplay:10.37,2013-06-06 15:30:00,
2013-06-06 16:40:00,75.7,48.3,30.05,ESE,108,3.0,12.0,38,0.00,CLR,CLR,0.00,WeatherDisplay:10.37,2013-06-06 15:40:00,
2013-06-06 16:50:00,75.3,50.6,30.05,East,97,5.0,13.0,42,0.00,CLR,CLR,0.00,WeatherDisplay:10.37,2013-06-06 15:50:00,
2013-06-06 17:00:00,77.0,51.5,30.05,East,86,3.0,10.0,41,0.00,CLR,CLR,0.00,WeatherDisplay:10.37,2013-06-06 16:00:00,
2013-06-06 17:10:00,73.8,51.1,30.05,East,90,6.0,13.0,45,0.00,CLR,CLR,0.00,WeatherDisplay:10.37,2013-06-06 16:10:00,
2013-06-06 17:20:00,73.6,50.9,30.05,ESE,102,6.0,14.0,45,0.00,CLR,CLR,0.00,WeatherDisplay:10.37,2013-06-06 16:20:00,
2013-06-06 17:30:00,73.8,51.2,30.05,East,86,6.0,17.0,45,0.00,CLR,CLR,0.00,WeatherDisplay:10.37,2013-06-06 16:30:00,
2013-06-06 17:40:00,75.0,51.0,30.05,East,83,7.0,15.0,43,0.00,CLR,CLR,0.00,WeatherDisplay:10.37,2013-06-06 16:40:00,
2013-06-06 17:50:00,74.5,51.1,30.05,ENE,78,6.0,15.0,44,0.00,CLR,CLR,0.00,WeatherDisplay:10.37,2013-06-06 16:50:00,
2013-06-06 18:00:00,73.1,49.3,30.05,East,96,9.0,16.0,43,0.00,CLR,CLR,0.00,WeatherDisplay:10.37,2013-06-06 17:00:00,
2013-06-06 18:10:00,74.4,51.7,30.05,East,93,6.0,15.0,45,0.00,CLR,CLR,0.00,WeatherDisplay:10.37,2013-06-06 17:10:00,
2013-06-06 18:20:00,72.7,49.5,30.06,ENE,74,7.0,20.0,44,0.00,CLR,CLR,0.00,WeatherDisplay:10.37,2013-06-06 17:20:00,
2013-06-06 18:30:00,74.2,51.5,30.06,East,95,6.0,15.0,45,0.00,CLR,CLR,0.00,WeatherDisplay:10.37,2013-06-06 17:30:00,
2013-06-06 18:40:00,72.1,50.2,30.06,ESE,103,9.0,17.0,46,0.00,CLR,CLR,0.00,WeatherDisplay:10.37,2013-06-06 17:40:00,
2013-06-06 18:50:00,73.6,50.9,30.06,ENE,68,8.0,15.0,45,0.00,CLR,CLR,0.00,WeatherDisplay:10.37,2013-06-06 17:50:00,
2013-06-06 19:00:00,73.4,50.8,30.06,ENE,73,9.0,15.0,45,0.00,CLR,CLR,0.00,WeatherDisplay:10.37,2013-06-06 18:00:00,
2013-06-06 19:10:00,74.0,51.3,30.06,East,88,6.0,15.0,45,0.00,CLR,CLR,0.00,WeatherDisplay:10.37,2013-06-06 18:10:00,
2013-06-06 19:20:00,73.9,51.2,30.06,ENE,72,6.0,13.0,45,0.00,CLR,CLR,0.00,WeatherDisplay:10.37,2013-06-06 18:20:00,
2013-06-06 19:30:00,72.9,50.9,30.07,ENE,77,9.0,16.0,46,0.00,CLR,CLR,0.00,WeatherDisplay:10.37,2013-06-06 18:30:00,
2013-06-06 19:40:00,72.5,50.5,30.07,ENE,75,10.0,15.0,46,0.00,CLR,CLR,0.00,WeatherDisplay:10.37,2013-06-06 18:40:00,
2013-06-06 19:50:00,72.4,49.8,30.07,East,92,10.0,17.0,45,0.00,CLR,CLR,0.00,WeatherDisplay:10.37,2013-06-06 18:50:00,
2013-06-06 20:00:00,71.4,50.1,30.07,East,93,8.0,16.0,47,0.00,CLR,CLR,0.00,WeatherDisplay:10.37,2013-06-06 19:00:00,
2013-06-06 20:10:00,70.9,49.6,30.07,East,97,6.0,17.0,47,0.00,CLR,CLR,0.00,WeatherDisplay:10.37,2013-06-06 19:10:00,
2013-06-06 20:20:00,71.1,50.5,30.07,East,99,2.0,13.0,48,0.00,CLR,CLR,0.00,WeatherDisplay:10.37,2013-06-06 19:20:00,
2013-06-06 20:30:00,71.0,50.3,30.08,East,88,6.0,10.0,48,0.00,CLR,CLR,0.00,WeatherDisplay:10.37,2013-06-06 19:30:00,
2013-06-06 20:40:00,70.7,50.6,30.08,East,95,3.0,13.0,49,0.00,CLR,CLR,0.00,WeatherDisplay:10.37,2013-06-06 19:40:00,
2013-06-06 20:50:00,70.2,50.6,30.08,East,88,5.0,14.0,50,0.00,CLR,CLR,0.00,WeatherDisplay:10.37,2013-06-06 19:50:00,
2013-06-06 21:00:00,69.1,50.2,30.08,East,82,8.0,14.0,51,0.00,CLR,CLR,0.00,WeatherDisplay:10.37,2013-06-06 20:00:00,
2013-06-06 21:10:00,68.5,49.7,30.09,East,94,6.0,13.0,51,0.00,CLR,CLR,0.00,WeatherDisplay:10.37,2013-06-06 20:10:00,
2013-06-06 21:20:00,68.2,49.3,30.09,East,79,7.0,10.0,51,0.00,CLR,CLR,0.00,WeatherDisplay:10.37,2013-06-06 20:20:00,
2013-06-06 21:30:00,67.4,50.2,30.09,ENE,74,3.0,11.0,54,0.00,CLR,CLR,0.00,WeatherDisplay:10.37,2013-06-06 20:30:00,
2013-06-06 21:40:00,66.6,49.4,30.09,East,82,3.0,9.0,54,0.00,CLR,CLR,0.00,WeatherDisplay:10.37,2013-06-06 20:40:00,
2013-06-06 21:50:00,65.4,49.8,30.10,ENE,61,5.0,8.0,57,0.00,CLR,CLR,0.00,WeatherDisplay:10.37,2013-06-06 20:50:00,
2013-06-06 22:00:00,64.4,49.8,30.10,NE,55,5.0,9.0,59,0.00,CLR,CLR,0.00,WeatherDisplay:10.37,2013-06-06 21:00:00,
2013-06-06 22:10:00,63.5,49.8,30.10,NE,56,6.0,10.0,61,0.00,CLR,CLR,0.00,WeatherDisplay:10.37,2013-06-06 21:10:00,
2013-06-06 22:20:00,63.0,49.7,30.10,ENE,72,6.0,13.0,62,0.00,CLR,CLR,0.00,WeatherDisplay:10.37,2013-06-06 21:20:00,
2013-06-06 22:30:00,62.5,50.2,30.11,East,97,6.0,11.0,64,0.00,CLR,CLR,0.00,WeatherDisplay:10.37,2013-06-06 21:30:00,
2013-06-06 22:40:00,62.1,50.2,30.11,ENE,60,6.0,11.0,65,0.00,CLR,CLR,0.00,WeatherDisplay:10.37,2013-06-06 21:40:00,
2013-06-06 22:50:00,61.5,50.1,30.11,ENE,74,8.0,13.0,66,0.00,CLR,CLR,0.00,WeatherDisplay:10.37,2013-06-06 21:50:00,
2013-06-06 23:00:00,61.5,50.5,30.11,NE,51,7.0,12.0,67,0.00,CLR,CLR,0.00,WeatherDisplay:10.37,2013-06-06 22:00:00,
2013-06-06 23:10:00,60.8,50.2,30.12,East,83,5.0,14.0,68,0.00,CLR,CLR,0.00,WeatherDisplay:10.37,2013-06-06 22:10:00,
2013-06-06 23:20:00,60.4,50.6,30.12,ENE,69,6.0,10.0,70,0.00,CLR,CLR,0.00,WeatherDisplay:10.37,2013-06-06 22:20:00,
2013-06-06 23:30:00,59.7,50.3,30.12,East,97,6.0,11.0,71,0.00,CLR,CLR,0.00,WeatherDisplay:10.37,2013-06-06 22:30:00,
2013-06-06 23:40:00,59.2,50.2,30.13,East,89,7.0,11.0,72,0.00,CLR,CLR,0.00,WeatherDisplay:10.37,2013-06-06 22:40:00,
2013-06-06 23:50:00,58.6,50.3,30.13,East,92,7.0,12.0,74,0.00,CLR,CLR,0.00,WeatherDisplay:10.37,2013-06-06 22:50:00,